METEOSAT-10 (MSG-3)

Last updated on Sun Apr 12 2026 00:02:26 GMT+0000 (Coordinated Universal Time)

1 38552U 12035B 26101.23549586 -.00000001 00000+0 00000+0 0 9996 2 38552 4.5129 61.2916 0002264 298.4247 284.6338 1.00274405 50182
UTC large
Height (km)
Speed (km/s)
/
Latitude / Longitude
Inclination (degrees)
Orbital Period (minutes)
Azimuth
Elevation
Range (km)
Doppler Factor

Next 0 passes for location: London (51.5072 / 0.1276)

Sorry there are no passes over London.